Previsão horária em Alife

Hoje, 17 Janeiro, Domingo

Tempo Temperatura Precipitação Vento Pressão Humidade
00:00 +1°C° 0 mm 1 m/s 743 mmHg 72%
01:00 +1°C° 0 mm 1 m/s 743 mmHg 71%
02:00 +1°C° 0 mm 1 m/s 743 mmHg 71%
03:00 +2°C° 0 mm 1 m/s 742 mmHg 70%
04:00 +2°C° 0 mm 1 m/s 742 mmHg 70%
05:00 +2°C° 0 mm 1 m/s 742 mmHg 70%
06:00 +2°C° 0 mm 1 m/s 741 mmHg 69%
07:00 +3°C° 0 mm 1 m/s 741 mmHg 68%
08:00 +3°C° 0 mm 1 m/s 741 mmHg 69%
09:00 +3°C° 0 mm 2 m/s 741 mmHg 70%
10:00 +4°C° 0 mm 2 m/s 740 mmHg 71%
11:00 +4°C° 0.1 mm 2 m/s 740 mmHg 75%
12:00 +5°C° 0.1 mm 1 m/s 739 mmHg 78%
13:00 +6°C° 0.1 mm 1 m/s 738 mmHg 82%
14:00 +4°C° 0.5 mm 2 m/s 738 mmHg 86%
15:00 +4°C° 0.5 mm 2 m/s 737 mmHg 90%
16:00 +4°C° 0.5 mm 2 m/s 737 mmHg 93%
17:00 +4°C° 0.2 mm 2 m/s 737 mmHg 93%
18:00 +4°C° 0.2 mm 2 m/s 737 mmHg 93%
19:00 +2°C° 0.2 mm 3 m/s 737 mmHg 93%
20:00 +2°C° 0 mm 3 m/s 738 mmHg 91%
21:00 +2°C° 0 mm 3 m/s 738 mmHg 89%
22:00 +2°C° 0 mm 3 m/s 739 mmHg 87%
23:00 +1°C° 0 mm 3 m/s 739 mmHg 87%

Amanhã, 18 Janeiro, Segunda-feira

Tempo Temperatura Precipitação Vento Pressão Humidade
00:00 +1°C° 0 mm 3 m/s 739 mmHg 87%
01:00 +1°C° 0 mm 3 m/s 740 mmHg 87%
02:00 +1°C° 0.1 mm 3 m/s 740 mmHg 87%
03:00 +1°C° 0.1 mm 3 m/s 740 mmHg 88%
04:00 +1°C° 0.1 mm 3 m/s 741 mmHg 89%
05:00 +1°C° 0.1 mm 3 m/s 741 mmHg 89%
06:00 +2°C° 0.1 mm 2 m/s 742 mmHg 89%
07:00 +2°C° 0.1 mm 2 m/s 742 mmHg 89%
08:00 +3°C° 0.1 mm 2 m/s 743 mmHg 83%
09:00 +4°C° 0.1 mm 2 m/s 744 mmHg 77%
10:00 +4°C° 0.1 mm 3 m/s 745 mmHg 71%
11:00 +6°C° 0 mm 2 m/s 745 mmHg 68%
12:00 +6°C° 0 mm 2 m/s 745 mmHg 64%
13:00 +7°C° 0 mm 2 m/s 745 mmHg 61%
14:00 +7°C° 0 mm 2 m/s 745 mmHg 63%
15:00 +7°C° 0 mm 1 m/s 745 mmHg 66%
16:00 +7°C° 0 mm 1 m/s 745 mmHg 68%
17:00 +6°C° 0 mm 1 m/s 746 mmHg 70%
18:00 +5°C° 0 mm 1 m/s 746 mmHg 71%
19:00 +3°C° 0 mm 1 m/s 746 mmHg 73%
20:00 +3°C° 0 mm 1 m/s 747 mmHg 72%
21:00 +3°C° 0 mm 1 m/s 747 mmHg 71%
22:00 +3°C° 0 mm 1 m/s 747 mmHg 70%
23:00 +3°C° 0 mm 1 m/s 747 mmHg 70%

Depois de amanhã, 19 Janeiro, Terça-feira

Tempo Temperatura Precipitação Vento Pressão Humidade
00:00 +3°C° 0 mm 1 m/s 747 mmHg 71%
01:00 +3°C° 0 mm 1 m/s 747 mmHg 71%
02:00 +3°C° 0 mm 1 m/s 747 mmHg 71%
03:00 +3°C° 0 mm 1 m/s 747 mmHg 72%
04:00 +3°C° 0 mm 1 m/s 747 mmHg 73%
05:00 +3°C° 0 mm 1 m/s 747 mmHg 73%
06:00 +3°C° 0 mm 1 m/s 747 mmHg 74%
07:00 +3°C° 0 mm 1 m/s 747 mmHg 74%
08:00 +4°C° 0 mm 1 m/s 748 mmHg 73%
09:00 +6°C° 0 mm 1 m/s 748 mmHg 71%
10:00 +7°C° 0 mm 1 m/s 748 mmHg 70%
11:00 +8°C° 0 mm 1 m/s 748 mmHg 69%
12:00 +9°C° 0 mm 1 m/s 748 mmHg 68%
13:00 +9°C° 0 mm 2 m/s 748 mmHg 67%
14:00 +8°C° 0 mm 2 m/s 747 mmHg 71%
15:00 +8°C° 0 mm 2 m/s 747 mmHg 75%
16:00 +8°C° 0 mm 2 m/s 747 mmHg 79%
17:00 +8°C° 0 mm 1 m/s 747 mmHg 82%
18:00 +8°C° 0 mm 1 m/s 747 mmHg 84%
19:00 +7°C° 0 mm 1 m/s 747 mmHg 86%
20:00 +7°C° 0.1 mm 1 m/s 747 mmHg 87%
21:00 +7°C° 0.1 mm 1 m/s 747 mmHg 89%
22:00 +7°C° 0.1 mm 1 m/s 747 mmHg 90%
23:00 +7°C° 0.1 mm 1 m/s 747 mmHg 91%

20 Janeiro, Quarta-feira

Tempo Temperatura Precipitação Vento Pressão Humidade
00:00 +7°C° 0.1 mm 1 m/s 747 mmHg 93%
01:00 +7°C° 0.1 mm 1 m/s 747 mmHg 94%
02:00 +7°C° 0.1 mm 1 m/s 747 mmHg 94%
03:00 +7°C° 0.1 mm 1 m/s 746 mmHg 93%
04:00 +7°C° 0.1 mm 1 m/s 746 mmHg 93%
05:00 +7°C° 0 mm 1 m/s 746 mmHg 93%
06:00 +7°C° 0 mm 1 m/s 746 mmHg 92%
07:00 +7°C° 0 mm 1 m/s 746 mmHg 92%
08:00 +8°C° 0 mm 1 m/s 746 mmHg 90%
09:00 +8°C° 0 mm 1 m/s 746 mmHg 88%
10:00 +9°C° 0 mm 1 m/s 746 mmHg 85%
11:00 +9°C° 0 mm 1 m/s 746 mmHg 84%
12:00 +10°C° 0 mm 1 m/s 746 mmHg 82%
13:00 +9°C° 0 mm 2 m/s 745 mmHg 81%
14:00 +9°C° 0 mm 2 m/s 745 mmHg 82%
15:00 +9°C° 0 mm 2 m/s 745 mmHg 83%
16:00 +9°C° 0 mm 2 m/s 744 mmHg 84%
17:00 +8°C° 0.2 mm 2 m/s 744 mmHg 87%
18:00 +8°C° 0.2 mm 2 m/s 744 mmHg 89%
19:00 +8°C° 0.2 mm 2 m/s 744 mmHg 92%
20:00 +8°C° 0.1 mm 2 m/s 744 mmHg 93%
21:00 +8°C° 0.1 mm 2 m/s 744 mmHg 93%
22:00 +8°C° 0.1 mm 2 m/s 744 mmHg 94%
23:00 +8°C° 0.1 mm 2 m/s 743 mmHg 94%

21 Janeiro, Quinta-feira

Tempo Temperatura Precipitação Vento Pressão Humidade
00:00 +8°C° 0.1 mm 2 m/s 743 mmHg 94%
01:00 +8°C° 0.1 mm 2 m/s 743 mmHg 94%
02:00 +8°C° 0.1 mm 2 m/s 743 mmHg 94%
03:00 +8°C° 0.1 mm 2 m/s 742 mmHg 94%
04:00 +9°C° 0.1 mm 1 m/s 742 mmHg 93%
05:00 +9°C° 0 mm 1 m/s 741 mmHg 93%
06:00 +9°C° 0 mm 1 m/s 741 mmHg 93%
07:00 +9°C° 0 mm 1 m/s 741 mmHg 92%
08:00 +8°C° 0.1 mm 2 m/s 741 mmHg 91%
09:00 +9°C° 0.1 mm 2 m/s 741 mmHg 89%
10:00 +9°C° 0.1 mm 2 m/s 741 mmHg 88%
11:00 +9°C° 0.3 mm 2 m/s 741 mmHg 87%
12:00 +10°C° 0.3 mm 3 m/s 741 mmHg 87%
13:00 +10°C° 0.3 mm 3 m/s 740 mmHg 86%
14:00 +10°C° 0.7 mm 3 m/s 740 mmHg 87%
15:00 +10°C° 0.7 mm 3 m/s 740 mmHg 88%
16:00 +10°C° 0.7 mm 3 m/s 740 mmHg 88%
17:00 +10°C° 0.3 mm 3 m/s 740 mmHg 89%
18:00 +10°C° 0.3 mm 2 m/s 740 mmHg 90%
19:00 +10°C° 0.3 mm 2 m/s 740 mmHg 91%
20:00 +10°C° 0.1 mm 2 m/s 740 mmHg 92%
21:00 +9°C° 0.1 mm 2 m/s 740 mmHg 92%
22:00 +9°C° 0.1 mm 2 m/s 740 mmHg 92%
23:00 +9°C° 0.1 mm 2 m/s 740 mmHg 93%

22 Janeiro, Sexta-feira

Tempo Temperatura Precipitação Vento Pressão Humidade
00:00 +9°C° 0.1 mm 2 m/s 740 mmHg 93%
01:00 +9°C° 0.1 mm 2 m/s 740 mmHg 94%
02:00 +9°C° 0.1 mm 2 m/s 739 mmHg 95%
03:00 +9°C° 0.1 mm 2 m/s 739 mmHg 96%
04:00 +9°C° 0.1 mm 2 m/s 739 mmHg 96%
05:00 +9°C° 0.3 mm 2 m/s 739 mmHg 97%
06:00 +10°C° 0.3 mm 2 m/s 739 mmHg 97%
07:00 +10°C° 0.3 mm 2 m/s 739 mmHg 97%
08:00 +10°C° 0.5 mm 3 m/s 738 mmHg 96%
09:00 +11°C° 0.5 mm 4 m/s 738 mmHg 94%
10:00 +11°C° 0.5 mm 4 m/s 738 mmHg 92%
11:00 +12°C° 0.5 mm 5 m/s 738 mmHg 91%
12:00 +11°C° 0.5 mm 6 m/s 737 mmHg 89%
13:00 +11°C° 0.5 mm 6 m/s 737 mmHg 87%
14:00 +11°C° 0.4 mm 7 m/s 736 mmHg 87%
15:00 +11°C° 0.4 mm 8 m/s 736 mmHg 88%
16:00 +11°C° 0.4 mm 9 m/s 735 mmHg 88%
17:00 +11°C° 0.7 mm 9 m/s 735 mmHg 89%
18:00 +11°C° 0.7 mm 9 m/s 734 mmHg 90%
19:00 +10°C° 0.7 mm 9 m/s 734 mmHg 91%
20:00 +11°C° 0.9 mm 9 m/s 734 mmHg 90%
21:00 +11°C° 0.9 mm 8 m/s 734 mmHg 89%
22:00 +11°C° 0.9 mm 8 m/s 733 mmHg 88%
23:00 +11°C° 0.2 mm 8 m/s 733 mmHg 88%
Mostrar mais

Necessitamos do seu Consentimento

A Meteoprog e os seus Fornecedores de Serviços podem armazenar e aceder a dados pessoais como cookies, identificadores do dispositivo ou outras tecnologias semelhantes existentes no seu dispositivo e processar estes dados para personalizar conteúdos e anúncios, assim como funcionalidades nas redes sociais e análise de tráfego.

  • Armazenar e/ou aceder a informações no seu dispositivo

    Os cookies, identificadores do dispositivo ou outras informações podem ser armazenados ou acedidos no seu dispositivo, para os fins acima indicados.

  • Anúncios e conteúdos personalizados, medição de anúncios e conteúdos, dados sobre o público-alvo e desenvolvimento de produtos

    Os anúncios e os conteúdos podem ser personalizados com base num perfil. Podem ser adicionados dados adicionais para uma maior personalização dos anúncios e dos conteúdos. A eficácia dos anúncios e dos conteúdos pode ser medida. Podem ser obtidas informações sobre o público que visualizou os anúncios e os conteúdos. Estes dados podem ser usados para desenvolver ou melhorar sistemas, softwares ou a experiência do utilizador.

Ao clicar em "Eu concordo”, permitirá o uso de cookies, identificadores do dispositivo e web beacons mencionados ou outras tecnologias semelhantes. As configurações do navegador do seu dispositivo podem ser alteradas.

Para certos fins, podem ser invocados interesses legítimos ao invés de consentimento. Pode ler mais informação sobre este assunto na nossa Política de Privacidade e Cookies.